CZ-6A DEB

Satellite information

Favourite Embed

Satellite Type and Status

DEBRISIN ORBIT

Key statistics

Satellite CZ-6A DEB at a glance.

Uptime

1129

Days in orbit

Revolutions

≈ 14.2

Per day

Orbit

SSO

Sun Synchronous Orbit

Inclination

98.8

Latest

Satellite identification and parameters

Extended collection of information and parameters for CZ-6A DEB.

Object identification

Identified? True

Debris? True

Object name: CZ-6A DEB

International designator: 2022-151AHH

Object number (NORAD): 56681

Object ID (CCSDS): 56681

Country: PEOPLES REPUBLIC OF CHINA (PRC)

Current information (Y/N): Y

RCS size: SMALL

Orbital parameters

Period: 101.453 minutes

Inclination: 98.8138 deg

SMA: 7205.587 km

Apoapsis: 850.21 km

Periapsis: 804.694 km

RAAN: 354.1491 deg

Eccentricy: 0.00315841

Argument of periapsis: 110.4392 deg

Mean anomaly: 250.018 deg

Mean motion: 14.19380136 rev/day

Mean motion (dot): 0.00003542 rev/day2

B* drag term: 0.0016972081 1/REarth

Two-line elements (TLE)

Creation date: Dec. 13, 2025, 4:32 a.m.

Reference frame: TEME

Reference center: EARTH

Epoch: Dec. 12, 2025, 12:52 p.m. UTC

TLE line 0: 0 CZ-6A DEB

TLE line 1: 1 56681U 22151AHH 25346.53642130 .00003542 00000-0 16972-2 0 9992

TLE line 2: 2 56681 98.8138 354.1491 0031584 110.4392 250.0180 14.19380136140145

Live tracking on map

Real-time ground track for satellite CZ-6A DEB.

In-orbit conjunctions

A list of the most updated potential collisions computed for object CZ-6A DEB.

Target Orbit TCA Probability of collision Miss distance Type
SL-3 R/B LEO 2025-12-10 03:53:44 0.0002621768 481.0 (m) ROCKET BODY
FENGYUN 1C DEB SSO 2025-11-21 04:19:44 0.0003399626 48.0 (m) DEBRIS

Associated space launch

Chinese satellite reported for atmospheric/ocean/environmental/spatial parameter research purposes, details TBD.

CZ-6A DEB was lifted into orbit during the mission ‘Long March 6A | Yunhai 3’, on board a Long March 6A space rocket.

The launch took place on Nov. 11, 2022, 10:52 p.m. from Launch Complex 9A.

For more information about the launch, click the button.

Launch to space Long March 6A | Yunhai 3
Long March 6A | Yunhai 3

Agency: N/A

Status: Launch Successful

Launch date: Nov. 11, 2022, 10:52 p.m. UTC

Rocket: Long March 6A

Launch pad: Launch Complex 9A

Location: Taiyuan Satellite Launch Center, People's Republic of China

...

Latest news about this satellite

There are no fresh news available about this satellite. Check back as we update our databases every day.


Newsletter sign-up

Weekly statistics, charts and insights to help you stay on top of the space industry.